Weather in Adelaide

Australia     34°57′05″S   138°35′37″E
temp.,
°C
wind,
m/s
gust,
m/s
humid.,
%
clouds,
%
prec.,
mm/h
press.,
hPa
HPBL,
m
26 february, fri
fri2601:30+17sse247921 0.1 1014520
04:30+16ese358216 0.1 1014433
07:30+16ese357916 0.1 1015472
10:30+19se22588 0.1 1015864
13:30+21sw435040 0.0 1014883
16:30+21sw555320 0.0 1012659
19:30+20sse785255 0.0 1012591
22:30+16se696967 0.0 1014355
27 february, sat
sat2701:30+16ese3571100 0.0 1013282
04:30+16e2369100 0.0 1012209
07:30+16e116522 0.0 1013142
10:30+20w215311 0.0 1013259
13:30+20wsw44590 0.0 1012287
16:30+21sw56580 0.0 1010292
19:30+21ssw565771 0.0 1011370
22:30+18se587067 0.0 1013245
28 february, sun
sun2801:30+17ese457274 0.0 1012208
04:30+17se226741 0.0 1011107
07:30+18sse226379 0.0 1012130
10:30+21sw325247 0.0 1013313
13:30+21sw55590 0.0 1013288
16:30+22sw66590 0.0 1011328
19:30+21sse67620 0.0 1012369
22:30+16se610750 0.0 1014399
1 march, mon
mon101:30+16se69780 0.0 1014432
04:30+16se47780 0.0 1013403
07:30+15se578261 0.0 1015448
10:30+19sse466150 0.0 1017756
13:30+22s665233 0.0 1017873
16:30+22s884817 0.0 1016921
19:30+18sse7106712 0.0 1017834
22:30+16se7117119 0.0 1019756
2 march, tue
tue201:30+14se610690 0.0 1019689
04:30+13ese611630 0.0 1019617
07:30+12ese5105933 0.0 1020628
10:30+15ese364560 0.0 1022696
13:30+20sse132930 0.0 1020805
16:30+22sse563332 0.0 1018672
19:30+18se7105381 0.0 1019543
22:30+16se7126947 0.0 1020456